User: anonymous   Login
Location: Fort Wayne
(41.1310°N, 85.1290°W)
Time: 22:22:38
(UTC-04:00)
Language:

ISS - Orbit

View from above orbital plane
View from above orbital plane
View from above satellite
View from above satellite

Ground track
Ground track

The orbit data is extracted from the following two-line orbital elements,

1 25544U 98067A   16178.88266204  .00002736  00000-0  47597-4 0  9993
2 25544  51.6455   9.6668 0000708  24.8476 177.8489 15.54685312  6492
Epoch (UTC): 26 June 2016 21:11:02
Eccentricity: 0.0000708
inclination: 51.6455°
perigee height: 402 km
apogee height: 403 km
right ascension of ascending node: 9.6668°
argument of perigee: 24.8476°
revolutions per day: 15.54685312
mean anomaly at epoch: 177.8489°
orbit number at epoch: 649

The dashed part of the orbit path shows where the satellite is in the earth's shadow,  

DLR